Location: Boussac
(44.2782°N, 2.3665°E)
Time: 20:22:30
(UTC+00:00)

Cosmos 1354 Rocket - Pass Details

Date: 15 May 2026
Orbit: 761 x 778 km, 74.0° (Epoch: 6 June)

Event Time Altitude Azimuth Distance (km) Brightness Sun altitude
Rises 21:59:04 0° 339° (NNW) 3,243 8.7 -22.1°
Reaches altitude 10° 22:01:27 10° 339° (NNW) 2,310 7.6 -22.2°
Maximum altitude 22:06:43 90° 256° (WSW) 769 3.9 -22.7°
Enters shadow 22:07:47 58° 161° (SSE) 887 3.9 -22.7°
